Regional Weather Roundup
Issued by NWS San Diego, CA

Home | Current Version | Previous Version | Text Only | Print | Product List | Glossary On
Versions: 1 2 3 4 5 6 7 8 9 10 11 12 13 14 15 16 17 18 19 20 21 22 23 24 25 26 27 28 29 30 31 32 33 34 35 36 37 38 39 40 41 42 43 44 45 46 47 48 49 50
000
ASUS46 KSGX 310411
RWRSGX

SAN DIEGO HOURLY WEATHER ROUNDUP
NATIONAL WEATHER SERVICE SAN DIEGO CA
900 PM PDT MON MAY 30 2016

NOTE: "FAIR" INDICATES FEW OR NO CLOUDS BELOW 12,000 FEET WITH NO
SIGNIFICANT WEATHER AND/OR OBSTRUCTIONS TO VISIBILITY.

CAZ042-043-060-061-PZZ750-775-310500-

GREATER SAN DIEGO AREA

CITY           SKY/WX    TMP DP  RH WIND       PRES   REMARKS
LINDBERGH FLD  MOCLDY    65  56  72 W7        29.93S
POINT LOMA       N/A     62  57  84 NW14        N/A
NATIONAL CITY    N/A     64  58  79 NW3       29.93S
CHULA VISTA      N/A     64  59  85 NW2       29.85S
IMPERIAL BEACH MOCLDY    66  57  72 NW9       29.93S
BROWN FIELD    CLEAR     60  56  86 W7        29.92S
MIRAMAR MCAS   MOCLDY    65  55  70 W7        29.92S
MONTGOMERY FLD CLOUDY    63  55  75 NW7       29.93R

$$

NORTH SAN DIEGO COUNTY

CITY           SKY/WX    TMP DP  RH WIND       PRES   REMARKS
CAMP PENDLETON CLEAR     61  56  83 CALM      29.91S
OCEANSIDE AP   MOCLDY    62  56  80 W3        29.91S
OCEANSIDE HBR    N/A     63  60  91 NW3       29.95R
VISTA            N/A     62  57  84 CALM      29.90S
CARLSBAD       CLOUDY    63  58  83 W5        29.91S
DEL MAR          N/A     63  58  84 CALM      29.95S
LA JOLLA SCRIP   N/A     62  59  90 NW3       29.92R
FALLBROOK        N/A     61  59  92 CALM      29.90R
ESCONDIDO        N/A     63  56  79 W3        29.94R
SAN MARCOS       N/A     61  52  71 CALM      29.90S
POWAY            N/A     62  56  80 CALM      29.93S

$$

EAST SAN DIEGO COUNTY

CITY           SKY/WX    TMP DP  RH WIND       PRES   REMARKS
RAMONA         CLEAR     57  52  83 W7        29.92S
SANTEE LAKES     N/A     62  57  83 W2        29.91R
LA MESA          N/A     61  56  84 CALM      29.85S
DESCANSO N       N/A     57  51  80 SW3       29.80S
MT. LAGUNA OBS   N/A     60  33  35 W3        29.67S
CAMPO            N/A     60  53  77 S5        29.92R

$$

ORANGE COUNTY AND THE LOS ANGELES BASIN

CITY           SKY/WX    TMP DP  RH WIND       PRES   REMARKS
JOHN WAYNE AP  PTCLDY    62  55  77 W5        29.92R
LAKE FOREST FR   N/A     60  53  77 CALM      29.81S
HUNTINGTON BCH   N/A     61  57  86 W3        29.93S
LOS ALAMITOS   FAIR      63  55  77 W6        29.91S
FULLERTON      CLEAR     64  55  72 W5        29.90S
LONG BEACH     CLEAR     62  56  80 W12       29.91S
L.A. AP        MOCLDY    60  55  83 W12       29.92S
L.A. DOWNTOWN  CLEAR     62  55  77 VRB6      29.91S

$$

THE INLAND EMPIRE

CITY           SKY/WX    TMP DP  RH WIND       PRES   REMARKS
CORONA         CLEAR     65  56  72 W9        29.90S
CHINO          CLEAR     65  54  67 W7        29.92R
ONTARIO        PTCLDY    66  54  65 SW8       29.90S
SAN BERNARDINO CLEAR     72  54  53 W6        29.90S
RIVERSIDE AP   CLEAR     67  54  63 W7        29.91R
MORENO VALLEY    N/A     69  59  70 W3        28.03R
MARCH ARB      CLEAR     67  55  64 NW6       29.91S
HORSETHIEF CYN   N/A     67  52  58 N6        29.93R
PERRIS           N/A     69  57  65 NW5       29.88R
HEMET EAST       N/A     69  53  55 W1        29.79S
FRENCH VALLEY  FAIR      63  54  72 S5        29.92S
TEMECULA         N/A     65  57  76 CALM      29.88R

$$

SAN BERNARDINO AND RIVERSIDE COUNTY MOUNTAINS

CITY           SKY/WX    TMP DP  RH WIND       PRES   REMARKS
BIG BEAR AP    CLEAR     55  25  30 CALM      30.16R
PINE COVE        N/A     59  39  46 N3        29.86S

$$

SOUTHERN DESERT INCLUDING THE COACHELLA VALLEY

CITY           SKY/WX    TMP DP  RH WIND       PRES   REMARKS
PALM SPRINGS   CLEAR     88  51  28 NW13      29.76R
THOUSAND PALMS   N/A     86  52  30 NW13      29.72S
PALM DESERT      N/A     88  52  28 CALM      26.22F
THERMAL        CLEAR     82  43  25 N6        29.71R
BLYTHE         PTCLDY    90  30  11 SW8       29.72S
IMPERIAL AP    PTCLDY    88  36  15 S6        29.71S
EL CENTRO NAS  CLEAR     83  39  21 S7        29.73S
YUMA AZ        CLEAR     85  44  23 S8        29.74
MEXICALI       CLEAR     82  43  24 S7        29.74S

$$

UPPER DESERT

CITY           SKY/WX    TMP DP  RH WIND       PRES   REMARKS
VICTORVILLE AP CLEAR     79  39  24 W17       29.91R
HESPERIA         N/A     71  47  42 W3        29.92R
PALMDALE       CLEAR     78  36  21 W14       29.92R
LANCASTER      CLEAR     79  34  19 W17       29.89S
EDWARDS AFB    CLEAR     81  38  21 W21       29.84S
DAGGETT        CLEAR     86  26  11 W10G16    29.81R
29 PALMS N     PTCLDY    84  37  18 S12       29.88R
NEEDLES        MOCLDY    95  25   8 SW14      29.73R

$$

REGIONAL REPORTS

CITY           SKY/WX    TMP DP  RH WIND       PRES   REMARKS
SANTA BARBARA  MOCLDY    57  54  89 E5        29.91S
SANDBERG       CLEAR     71  32  23 NW10G22   30.07R
LAS VEGAS NV   MOCLDY    91  29  11 CALM      29.77R
PHOENIX AZ     CLEAR     88  17   7 W7        29.76R
TIJUANA        PTCLDY    61  54  77 W9        29.94F
ENSENADA NW      N/A     63  32  31 NW14      29.90R

$$

OFFSHORE ISLANDS

CITY           SKY/WX    TMP DP  RH WIND       PRES   REMARKS
CATALINA ARPT  FOG       52  52 100 SW6       29.94S VSB 1/4
SAN NICOLAS IS CLOUDY   N/A N/A N/A NW15      29.94R

$$

MARINE AND OFFSHORE BUOY REPORTS

STATION/POSITION SKY/WX   TEMP    WIND        PRES    SWELL
                          AIR SEA DIR/SP/G            HT/PER/DIR
                          (F)     (DEG/KT/KT) (MB)    (FT/S/D)
TANNER BANKS               58 61  310/ 14/ 16 1013.8F   5/220/16
S CLEMENTE BASIN           60 63  280/ 10/ 10 1013.3F   3/190/17
SAN NICOLAS IS.               59                N/A     3/200/17
SO. S. ROSA ISLA           56 59  300/ 17/ 21 1013.6R   5/180/17
W. S. BARBARA CH           55 55  310/ 17/ 21 1013.1R   3/190/17
M. S. BARBARA CH           57 59  250/ 12/ 16 1013.5R
S. MONICA BASIN            60 64  290/  8/ 10 1013.4S   3/220/17
S PEDRO CHANNEL               64                N/A     2/170/13
OCEANSIDE OFFSHR              65                N/A     3/200/17
TORREY PINES OTR              65                N/A     3/210/18
LA JOLLA 1                    66                N/A
SAN DIEGO BAY                 68                N/A
POINT LOMA SOUTH              65                N/A     3/210/17

$$




USA.gov is the U.S. government's official web portal to all federal, state and local government web resources and services.